CW8014 Weather Reports


Display with metric or nautical units.
time (UTC)temp
F
wind
direction
speed
MPH
gust
MPH
rain 1hr
in
rain 24hr
in
rain mn
in
humidity
%
barometer
mb
20260504185410 58 350 6.0 9.0 0.00 0.02 0.00 87 1012.6
20260504184413 58 350 6.0 9.0 0.00 0.02 0.00 87 1012.6
20260504183410 58 350 6.0 9.0 0.00 0.02 0.00 87 1012.6
20260504181409 58 350 6.0 9.0 0.00 0.02 0.00 87 1012.6
20260504180409 58 350 6.0 9.0 0.00 0.02 0.00 87 1012.6
20260504174410 58 350 6.0 9.0 0.00 0.02 0.00 87 1012.6
20260504173409 58 350 6.0 9.0 0.00 0.02 0.00 87 1012.6
20260504172410 58 350 6.0 9.0 0.00 0.02 0.00 87 1012.6
20260504170409 59 5 6.0 11.0 0.00 0.02 0.00 86 1012.6
20260504160409 61 44 5.0 10.0 0.00 0.02 0.00 85 1012.7
20260504140403 64 9 6.0 11.0 0.00 0.67 0.00 83 1012.7
20260504110403 62 92 2.0 6.0 0.00 0.80 0.00 84 1013.1
20260504081402 56 83 0.0 2.0 0.00 0.80 0.00 92 1013.0
20260504070408 55 34 1.0 3.0 0.00 0.80 0.00 96 1012.3
20260504050407 53 351 1.0 2.0 0.00 0.80 0.00 97 1011.8
20260504045407 53 317 1.0 3.0 0.00 0.80 0.00 97 1011.7
20260504044407 53 360 2.0 4.0 0.00 0.80 0.00 97 1011.6
20260504043410 53 333 2.0 4.0 0.00 0.80 0.00 97 1011.5
20260504042407 53 341 3.0 6.0 0.00 0.80 0.00 97 1011.6
20260504041407 54 331 3.0 6.0 0.00 0.80 0.00 97 1011.6
20260504040407 54 317 2.0 4.0 0.00 0.80 0.00 97 1011.6
20260504035407 54 325 2.0 4.0 0.00 0.80 0.00 97 1011.6
20260504033407 54 341 1.0 3.0 0.00 0.80 0.00 96 1011.6
20260504032407 54 342 1.0 2.0 0.00 0.80 0.00 96 1011.5
20260504031407 54 355 2.0 4.0 0.00 0.80 0.00 97 1011.5
20260504030407 54 340 3.0 5.0 0.00 0.80 0.00 97 1011.4
20260504025410 54 319 6.0 10.0 0.00 0.80 0.00 96 1011.5
20260504024407 55 350 4.0 8.0 0.00 0.80 0.00 97 1011.1
20260504023407 55 325 4.0 9.0 0.00 0.80 0.00 97 1011.1
20260504022407 55 315 4.0 7.0 0.00 0.80 0.00 97 1011.1
20260504020407 56 311 4.0 8.0 0.00 0.80 0.00 97 1010.9
20260504015407 56 317 4.0 8.0 0.00 0.80 0.00 97 1011.0
20260504013407 56 292 3.0 7.0 0.00 0.80 0.00 97 1010.8
20260504012407 57 310 1.0 3.0 0.00 0.80 0.00 97 1010.7
20260504011407 56 248 2.0 4.0 0.00 0.80 0.00 97 1010.8
20260504010407 56 258 2.0 3.0 0.00 0.80 0.00 97 1010.7
20260504005407 56 236 1.0 4.0 0.00 0.80 0.00 97 1010.6
20260504004407 56 236 1.0 3.0 0.00 0.80 0.00 97 1010.7
20260504003407 56 244 2.0 3.0 0.00 0.80 0.00 97 1010.6
20260504002407 56 228 1.0 2.0 0.00 0.80 0.00 97 1010.5
20260504001407 56 245 1.0 6.0 0.00 0.80 0.00 97 1010.6
20260504000408 56 277 2.0 5.0 0.00 0.80 0.00 97 1010.5
20260503235410 56 237 2.0 6.0 0.00 0.80 0.00 97 1010.5
20260503234407 56 230 0.0 2.0 0.00 0.80 0.00 97 1010.5
20260503231407 57 188 1.0 3.0 0.00 0.80 0.00 97 1010.4
20260503230407 57 209 1.0 3.0 0.00 0.80 0.00 96 1010.3
20260503225406 57 269 2.0 5.0 0.00 0.80 0.00 96 1010.4
20260503224407 57 184 1.0 5.0 0.00 0.80 0.00 96 1010.3
20260503223407 57 222 1.0 2.0 0.00 0.80 0.00 96 1010.3
20260503222407 57 227 1.0 4.0 0.00 0.80 0.00 96 1010.3
20260503221406 57 236 1.0 4.0 0.00 0.80 0.00 96 1010.2
20260503215410 57 232 2.0 4.0 0.00 0.80 0.80 96 1010.3
20260503214410 57 229 1.0 4.0 0.00 0.80 0.80 96 1010.3
20260503213410 57 192 1.0 4.0 0.00 0.80 0.80 96 1010.2
20260503212410 57 175 1.0 4.0 0.00 0.80 0.80 96 1010.2
20260503211413 58 173 2.0 5.0 0.00 0.80 0.80 96 1010.2
20260503210411 58 188 3.0 5.0 0.00 0.80 0.80 96 1010.1
20260503205413 58 180 3.0 6.0 0.00 0.80 0.80 96 1010.1
20260503203410 58 190 2.0 5.0 0.02 0.80 0.80 96 1010.2
20260503202410 58 201 2.0 7.0 0.02 0.80 0.80 96 1010.2
20260503201410 58 178 2.0 7.0 0.02 0.80 0.80 96 1010.2
20260503200410 58 242 2.0 6.0 0.02 0.80 0.80 96 1010.2
20260503195410 59 159 4.0 11.0 0.02 0.80 0.80 96 1010.1
20260503193410 59 207 1.0 4.0 0.00 0.78 0.78 96 1009.9
20260503191410 59 196 3.0 5.0 0.00 0.78 0.78 96 1009.7